sat.trackr.live / text

‹ back to catalog

PAKSAT-1R

NORAD 37779 · 2011-042A

PAYLOAD ACTIVE UNKNOWN

§ Identity

Operator
Country
PAKI
Launch date
2011-08-11
Launch site
XICLF
Launch vehicle
Mass (kg)
RCS (m²)
14.69

Purposes: comms

External: N2YO · Heavens-Above · Gunter

§ Orbital elements

Epoch: 2026-05-25T03:55:23.729376Z

Period
1,436.15 min
Inclination
0.6313°
Eccentricity
0.0003357
Mean motion
1.00267862 rev/d
Perigee alt
35,773.5 km
Apogee alt
35,801.8 km
Semi-major
42,165.8 km
B*
0.0000e+0
RAAN
84.7827°
Arg perigee
329.7380°
Mean anomaly
285.0899°
Rev number
5,424

§ Raw data

PAKSAT-1R1 37779U 11042A   26145.16346909  .00000152  00000+0  00000+0 0  99932 37779   0.6313  84.7827 0003357 329.7380 285.0899  1.00267862 54242

JSON: /api/v1/satellites/37779 · /tle

For live sub-satellite position, see the globe view (requires WebGL).

§ Visibility from observer

Set your observer location to see the next 7 days of passes ≥ 10°. The values pass through the URL so the page stays shareable.

No JS? Fill the form by hand. The geolocation button needs JavaScript.